{"data":{"norad_id":52371,"intl_designator":"2022-045AS","name":"STARLINK-3798","alt_names":[],"object_type":"PAYLOAD","status":"ACTIVE","operator":null,"country":"US","launch_date":"2022-04-29","launch_site_code":"AFETR","launch_vehicle":null,"mission":null,"orbit_class":"UNKNOWN","rcs_meters":null,"size_class":null,"mass_kg":null,"dimensions":null,"purposes":["comms"],"wikipedia_slug":null,"has_3d_model":false,"image_url":null,"decayed_at":null,"tle_current":{"epoch":"2026-05-24T21:04:14.708928Z","epoch_age_seconds":92475,"freshness":"FRESH","line1":"1 52371U 22045AS  26144.87794802  .00002210  00000+0  15698-3 0  9999","line2":"2 52371  53.2123 207.1094 0001503  95.8388 264.2775 15.08815736227412","mean_motion":15.08815736,"eccentricity":0.0001503,"inclination_deg":53.2123,"raan_deg":207.1094,"arg_perigee_deg":95.8388,"mean_anomaly_deg":264.2775,"bstar":0.00015698,"rev_number":22741,"period_min":95.43908945552,"perigee_km":538.77778672939,"apogee_km":540.85732386871,"semimajor_km":6917.954555299,"source":"CELESTRAK","updated_at":"2026-05-25T13:38:17.120982Z"}}}